Milwaukee, WI

5:28 PM CST on January 16, 2017 (GMT -0600)
Gen Mitchell International

Weather History for KMKE - July, 2013

Change the Weather History Date:

Tuesday, July 16, 2013

  Actual Average Record
Temperature  
Mean Temperature 84 °F 72 °F  
Max Temperature 93 °F 80 °F 100 °F (1887)
Min Temperature 75 °F 64 °F 45 °F (1945)
Degree Days  
Heating Degree Days 0 0  
Month to date heating degree days 3 4  
Since 1 June heating degree days 90 88  
Since 1 July heating degree days 3 4  
Cooling Degree Days 19 7  
Month to date cooling degree days 134 111  
Year to date cooling degree days 272 261  
Since 1 June cooling degree days 233 231  
Growing Degree Days 34 (Base 50)    
Moisture  
Dew Point 73 °F    
Average Humidity 72    
Maximum Humidity 94    
Minimum Humidity 49    
Precipitation  
Precipitation 0.00 in 0.12 in 2.15 in (1950)
Month to date precipitation 0.60 1.97  
Year to date precipitation 25.91 18.51  
Snow  
Snow 0.00 in 0.00 in 0.00 in ()
Month to date snowfall 0.0 0.0  
Since 1 June snowfall 0.0 0.0  
Since 1 July snowfall 0.0 0.0  
Snow Depth 0.00 in    
Sea Level Pressure  
Sea Level Pressure 30.25 in    
Wind  
Wind Speed 7 mph (SW)    
Max Wind Speed 14 mph    
Max Gust Speed 28 mph    
Visibility 9 miles    
Events      
T = Trace of Precipitation, MM = Missing Value Source: NWS Daily Summary

Daily Weather History Graph

Daily Weather History Graph

Search for Another Location

Airport or City:

Trip Planner

Search our weather history database for the weather conditions in past years. The results will help you decide how hot, cold, wet, or windy it might be!

Date:

Astronomy

Jul. 16, 2013 Rise Set
Actual Time 5:27 AM CDT 8:27 PM CDT
Civil Twilight 4:53 AM CDT 9:01 PM CDT
Nautical Twilight 4:10 AM CDT 9:44 PM CDT
Astronomical Twilight 3:18 AM CDT 10:35 PM CDT
Moon 2:05 PM CDT 12:01 AM CDT
Length of Visible Light 16h 08m
Length of Day
15h 00m
First Quarter, 56% of the Moon is Illuminated
Jul 16
First Quarter
Jul 22
Full
Jul 29
Last Quarter
Aug 6
New
Aug 14
First Quarter

Hourly Weather History & Observations

Time (CDT) Temp. Heat Index Dew Point Humidity Pressure Visibility Wind Dir Wind Speed Gust Speed Precip Events Conditions
12:52 AM 75.9 °F - 72.0 °F 87% 30.24 in 9.0 mi SW 3.5 mph - N/A   Clear
1:52 AM 75.9 °F - 72.0 °F 87% 30.25 in 9.0 mi South 4.6 mph - N/A   Partly Cloudy
2:52 AM 75.9 °F - 72.0 °F 87% 30.25 in 7.0 mi Calm Calm - N/A   Partly Cloudy
3:52 AM 75.9 °F - 73.0 °F 91% 30.25 in 7.0 mi SSW 5.8 mph - N/A   Partly Cloudy
4:52 AM 75.9 °F - 72.0 °F 87% 30.26 in 7.0 mi Calm Calm - N/A   Scattered Clouds
5:52 AM 75.9 °F - 72.0 °F 87% 30.27 in 6.0 mi Calm Calm - N/A   Scattered Clouds
6:52 AM 79.0 °F - 73.0 °F 82% 30.28 in 7.0 mi WSW 3.5 mph - N/A   Partly Cloudy
7:52 AM 81.0 °F 85.8 °F 73.0 °F 77% 30.28 in 9.0 mi WSW 6.9 mph - N/A   Partly Cloudy
8:52 AM 84.0 °F 91.2 °F 73.9 °F 72% 30.28 in 10.0 mi SW 9.2 mph - N/A   Partly Cloudy
9:52 AM 87.1 °F 95.4 °F 73.9 °F 65% 30.28 in 10.0 mi West 6.9 mph - N/A   Scattered Clouds
10:52 AM 88.0 °F 93.8 °F 71.1 °F 57% 30.27 in 10.0 mi WSW 10.4 mph - N/A   Scattered Clouds
11:52 AM 89.1 °F 95.0 °F 71.1 °F 55% 30.27 in 10.0 mi SSW 9.2 mph - N/A   Scattered Clouds
12:52 PM 90.0 °F 96.4 °F 71.1 °F 54% 30.26 in 10.0 mi WSW 6.9 mph 16.1 mph N/A   Scattered Clouds
1:52 PM 91.9 °F 98.4 °F 71.1 °F 50% 30.24 in 10.0 mi SW 9.2 mph - N/A   Scattered Clouds
2:52 PM 93.0 °F 100.7 °F 72.0 °F 50% 30.23 in 10.0 mi WSW 10.4 mph - N/A   Scattered Clouds
3:52 PM 93.0 °F 100.7 °F 72.0 °F 50% 30.22 in 10.0 mi SW 11.5 mph - N/A   Scattered Clouds
4:52 PM 91.9 °F 99.5 °F 72.0 °F 52% 30.22 in 10.0 mi SSW 11.5 mph - N/A   Scattered Clouds
5:52 PM 89.1 °F 99.1 °F 75.0 °F 63% 30.21 in 10.0 mi SSE 10.4 mph - N/A   Scattered Clouds
6:52 PM 88.0 °F 96.5 °F 73.9 °F 63% 30.22 in 10.0 mi South 8.1 mph - N/A   Scattered Clouds
7:52 PM 89.1 °F 96.0 °F 72.0 °F 57% 30.21 in 10.0 mi SW 6.9 mph - N/A   Scattered Clouds
8:52 PM 87.1 °F 94.5 °F 73.0 °F 63% 30.21 in 10.0 mi SW 6.9 mph - N/A   Scattered Clouds
9:52 PM 84.9 °F 91.4 °F 73.0 °F 67% 30.23 in 10.0 mi SW 5.8 mph - N/A   Clear
10:52 PM 84.0 °F 91.2 °F 73.9 °F 72% 30.25 in 10.0 mi SW 6.9 mph - N/A   Clear
11:52 PM 82.9 °F 89.4 °F 73.9 °F 74% 30.25 in 10.0 mi WSW 5.8 mph - N/A   Clear